Time,TemperatureF,DewpointF,PressureIn,WindDirection,WindDirectionDegrees,WindSpeedMPH,WindSpeedGustMPH,Humidity,HourlyPrecipIn,Conditions,Clouds,dailyrainin,SolarRadiationWatts/m^2,SoftwareType,DateUTC
2013-11-19 00:04:00,45.2,29.0,29.92,WNW,285,6.0,12.0,53,0.00,RA,,0.00,0.0,WeatherDisplay:10.37,2013-11-19 05:04:00,
2013-11-19 00:09:00,45.0,27.9,29.92,WNW,290,7.0,18.0,51,0.00,BKN,,0.00,0.0,WeatherDisplay:10.37,2013-11-19 05:09:00,
2013-11-19 00:14:00,44.9,27.8,29.92,WNW,289,6.0,12.0,51,0.00,BKN,,0.00,0.0,WeatherDisplay:10.37,2013-11-19 05:14:00,
2013-11-19 00:19:00,44.8,27.8,29.92,WNW,283,9.0,15.0,51,0.00,BKN,,0.00,0.0,WeatherDisplay:10.37,2013-11-19 05:19:00,
2013-11-19 00:24:00,44.7,27.7,29.92,WNW,283,6.0,13.0,51,0.00,BKN,,0.00,0.0,WeatherDisplay:10.37,2013-11-19 05:24:00,
2013-11-19 00:29:00,44.7,27.6,29.93,West,278,6.0,16.0,51,0.00,BKN,,0.00,0.0,WeatherDisplay:10.37,2013-11-19 05:29:00,
2013-11-19 00:39:00,44.4,27.9,29.93,West,276,3.0,8.0,52,0.00,BKN,,0.00,0.0,WeatherDisplay:10.37,2013-11-19 05:39:00,
2013-11-19 00:44:00,44.3,27.8,29.93,West,272,3.0,7.0,52,0.00,BKN,,0.00,0.0,WeatherDisplay:10.37,2013-11-19 05:44:00,
2013-11-19 00:49:00,44.2,28.1,29.93,West,271,2.0,7.0,53,0.00,BKN,,0.00,0.0,WeatherDisplay:10.37,2013-11-19 05:49:00,
2013-11-19 00:54:00,44.2,28.1,29.93,WNW,285,1.0,7.0,53,0.00,BKN,,0.00,0.0,WeatherDisplay:10.37,2013-11-19 05:54:00,
2013-11-19 00:59:00,44.1,28.5,29.93,West,278,3.0,8.0,54,0.00,BKN,,0.00,0.0,WeatherDisplay:10.37,2013-11-19 05:59:00,
2013-11-19 01:04:00,44.1,28.9,29.94,WNW,282,5.0,12.0,55,0.00,BKN,,0.00,0.0,WeatherDisplay:10.37,2013-11-19 06:04:00,
2013-11-19 01:09:00,44.1,29.4,29.94,WNW,287,2.0,10.0,56,0.00,BKN,,0.00,0.0,WeatherDisplay:10.37,2013-11-19 06:09:00,
2013-11-19 01:14:00,44.1,29.4,29.94,WNW,292,6.0,17.0,56,0.00,BKN,,0.00,0.0,WeatherDisplay:10.37,2013-11-19 06:14:00,
2013-11-19 01:24:00,43.8,28.7,29.94,West,280,10.0,18.0,55,0.00,BKN,,0.00,0.0,WeatherDisplay:10.37,2013-11-19 06:24:00,
2013-11-19 01:29:00,43.7,28.6,29.94,West,281,8.0,15.0,55,0.00,BKN,,0.00,0.0,WeatherDisplay:10.37,2013-11-19 06:29:00,
2013-11-19 01:34:00,43.6,28.4,29.94,West,278,7.0,17.0,55,0.00,BKN,,0.00,0.0,WeatherDisplay:10.37,2013-11-19 06:34:00,
2013-11-19 01:39:00,43.4,28.3,29.95,West,271,6.0,16.0,55,0.00,BKN,,0.00,0.0,WeatherDisplay:10.37,2013-11-19 06:39:00,
2013-11-19 01:44:00,43.1,28.1,29.95,West,273,6.0,13.0,55,0.00,BKN,,0.00,0.0,WeatherDisplay:10.37,2013-11-19 06:44:00,
2013-11-19 01:49:00,43.1,28.0,29.95,West,279,9.0,20.0,55,0.00,BKN,,0.00,0.0,WeatherDisplay:10.37,2013-11-19 06:49:00,
2013-11-19 01:54:00,43.0,27.9,29.96,West,281,8.0,16.0,55,0.00,BKN,,0.00,0.0,WeatherDisplay:10.37,2013-11-19 06:54:00,
2013-11-19 01:59:00,42.9,27.8,29.96,WNW,289,9.0,17.0,55,0.00,BKN,,0.00,0.0,WeatherDisplay:10.37,2013-11-19 06:59:00,
2013-11-19 02:04:00,42.8,28.2,29.96,WNW,285,6.0,23.0,56,0.00,SCT,,0.00,0.0,WeatherDisplay:10.37,2013-11-19 07:04:00,
2013-11-19 02:09:00,42.8,28.1,29.96,WNW,282,7.0,13.0,56,0.00,SCT,,0.00,0.0,WeatherDisplay:10.37,2013-11-19 07:09:00,
2013-11-19 02:14:00,42.7,28.1,29.97,West,279,6.0,15.0,56,0.00,SCT,,0.00,0.0,WeatherDisplay:10.37,2013-11-19 07:14:00,
2013-11-19 02:19:00,42.7,28.1,29.97,WNW,282,7.0,14.0,56,0.00,SCT,,0.00,0.0,WeatherDisplay:10.37,2013-11-19 07:19:00,
2013-11-19 02:24:00,42.7,28.0,29.97,WNW,284,6.0,12.0,56,0.00,SCT,,0.00,0.0,WeatherDisplay:10.37,2013-11-19 07:24:00,
2013-11-19 02:29:00,42.6,28.4,29.97,WNW,287,8.0,13.0,57,0.00,SCT,,0.00,0.0,WeatherDisplay:10.37,2013-11-19 07:29:00,
2013-11-19 02:34:00,42.5,28.3,29.97,WNW,282,5.0,15.0,57,0.00,SCT,,0.00,0.0,WeatherDisplay:10.37,2013-11-19 07:34:00,
2013-11-19 02:39:00,42.4,28.7,29.97,WNW,284,6.0,13.0,58,0.00,SCT,,0.00,0.0,WeatherDisplay:10.37,2013-11-19 07:39:00,
2013-11-19 02:44:00,42.4,28.7,29.97,WNW,283,9.0,15.0,58,0.00,SCT,,0.00,0.0,WeatherDisplay:10.37,2013-11-19 07:44:00,
2013-11-19 02:49:00,42.3,28.6,29.96,WNW,286,5.0,12.0,58,0.00,SCT,,0.00,0.0,WeatherDisplay:10.37,2013-11-19 07:49:00,
2013-11-19 02:54:00,42.3,28.6,29.97,WNW,292,10.0,16.0,58,0.00,SCT,,0.00,0.0,WeatherDisplay:10.37,2013-11-19 07:54:00,
2013-11-19 02:59:00,42.3,29.0,29.97,WNW,293,13.0,20.0,59,0.00,SCT,,0.00,0.0,WeatherDisplay:10.37,2013-11-19 07:59:00,
2013-11-19 03:04:00,42.3,29.0,29.97,WNW,292,7.0,14.0,59,0.00,OVC,,0.00,0.0,WeatherDisplay:10.37,2013-11-19 08:04:00,
2013-11-19 03:09:00,42.3,28.9,29.97,WNW,295,6.0,13.0,59,0.00,OVC,,0.00,0.0,WeatherDisplay:10.37,2013-11-19 08:09:00,
2013-11-19 03:14:00,42.2,29.3,29.97,WNW,296,8.0,18.0,60,0.00,OVC,,0.00,0.0,WeatherDisplay:10.37,2013-11-19 08:14:00,
2013-11-19 03:19:00,42.2,29.3,29.97,WNW,292,10.0,17.0,60,0.00,OVC,,0.00,0.0,WeatherDisplay:10.37,2013-11-19 08:19:00,
2013-11-19 03:24:00,42.2,29.3,29.97,WNW,289,6.0,14.0,60,0.00,OVC,,0.00,0.0,WeatherDisplay:10.37,2013-11-19 08:24:00,
2013-11-19 03:29:00,42.1,29.6,29.97,WNW,295,5.0,13.0,61,0.00,OVC,,0.00,0.0,WeatherDisplay:10.37,2013-11-19 08:29:00,
2013-11-19 03:34:00,42.1,29.6,29.98,WNW,303,6.0,12.0,61,0.00,OVC,,0.00,0.0,WeatherDisplay:10.37,2013-11-19 08:34:00,
2013-11-19 03:39:00,42.0,29.5,29.98,WNW,302,8.0,14.0,61,0.00,OVC,,0.00,0.0,WeatherDisplay:10.37,2013-11-19 08:39:00,
2013-11-19 03:44:00,42.0,29.5,29.99,WNW,296,5.0,15.0,61,0.00,OVC,,0.00,0.0,WeatherDisplay:10.37,2013-11-19 08:44:00,
2013-11-19 03:49:00,41.9,29.4,29.99,WNW,298,8.0,14.0,61,0.00,OVC,,0.00,0.0,WeatherDisplay:10.37,2013-11-19 08:49:00,
2013-11-19 03:54:00,41.9,29.4,29.99,WNW,291,7.0,14.0,61,0.00,OVC,,0.00,0.0,WeatherDisplay:10.37,2013-11-19 08:54:00,
2013-11-19 03:59:00,41.8,29.3,29.99,WNW,292,9.0,15.0,61,0.00,OVC,,0.00,0.0,WeatherDisplay:10.37,2013-11-19 08:59:00,
2013-11-19 04:04:00,41.8,28.9,29.99,WNW,295,9.0,17.0,60,0.00,OVC,,0.00,0.0,WeatherDisplay:10.37,2013-11-19 09:04:00,
2013-11-19 04:09:00,41.7,28.8,29.99,WNW,292,9.0,16.0,60,0.00,OVC,,0.00,0.0,WeatherDisplay:10.37,2013-11-19 09:09:00,
2013-11-19 04:14:00,41.6,28.7,29.99,WNW,293,8.0,16.0,60,0.00,OVC,,0.00,0.0,WeatherDisplay:10.37,2013-11-19 09:14:00,
2013-11-19 04:19:00,41.5,29.0,29.99,WNW,295,6.0,18.0,61,0.00,OVC,,0.00,0.0,WeatherDisplay:10.37,2013-11-19 09:19:00,
2013-11-19 04:24:00,41.4,28.9,30.00,WNW,291,8.0,17.0,61,0.00,OVC,,0.00,0.0,WeatherDisplay:10.37,2013-11-19 09:24:00,
2013-11-19 04:29:00,41.4,29.3,30.00,WNW,296,7.0,18.0,62,0.00,OVC,,0.00,0.0,WeatherDisplay:10.37,2013-11-19 09:29:00,
2013-11-19 04:34:00,41.3,29.3,30.01,WNW,302,8.0,14.0,62,0.00,OVC,,0.00,0.0,WeatherDisplay:10.37,2013-11-19 09:34:00,
2013-11-19 04:39:00,41.2,29.6,30.01,NW,304,10.0,20.0,63,0.00,OVC,,0.00,0.0,WeatherDisplay:10.37,2013-11-19 09:39:00,
2013-11-19 04:44:00,41.1,29.0,30.01,NW,305,7.0,17.0,62,0.00,OVC,,0.00,0.0,WeatherDisplay:10.37,2013-11-19 09:44:00,
2013-11-19 04:49:00,40.9,28.8,30.01,NW,305,12.0,17.0,62,0.00,OVC,,0.00,0.0,WeatherDisplay:10.37,2013-11-19 09:49:00,
2013-11-19 04:54:00,40.6,28.6,30.02,WNW,299,9.0,29.0,62,0.00,OVC,,0.00,0.0,WeatherDisplay:10.37,2013-11-19 09:54:00,
2013-11-19 04:59:00,40.3,27.9,30.02,WNW,298,14.0,24.0,61,0.00,OVC,,0.00,0.0,WeatherDisplay:10.37,2013-11-19 09:59:00,
2013-11-19 05:04:00,40.0,27.6,30.02,WNW,297,12.0,20.0,61,0.00,OVC,,0.00,0.0,WeatherDisplay:10.37,2013-11-19 10:04:00,
2013-11-19 05:09:00,39.7,27.0,30.02,WNW,296,9.0,20.0,60,0.00,OVC,,0.00,0.0,WeatherDisplay:10.37,2013-11-19 10:09:00,
2013-11-19 05:14:00,39.5,27.2,30.02,WNW,293,8.0,20.0,61,0.00,OVC,,0.00,0.0,WeatherDisplay:10.37,2013-11-19 10:14:00,
2013-11-19 05:19:00,39.4,27.1,30.03,WNW,292,12.0,23.0,61,0.00,OVC,,0.00,0.0,WeatherDisplay:10.37,2013-11-19 10:19:00,
2013-11-19 05:24:00,39.3,27.0,30.03,WNW,291,7.0,21.0,61,0.00,OVC,,0.00,0.0,WeatherDisplay:10.37,2013-11-19 10:24:00,
2013-11-19 05:29:00,39.2,26.9,30.04,WNW,287,7.0,15.0,61,0.00,OVC,,0.00,0.0,WeatherDisplay:10.37,2013-11-19 10:29:00,
2013-11-19 05:34:00,39.1,26.8,30.04,WNW,296,7.0,13.0,61,0.00,OVC,,0.00,0.0,WeatherDisplay:10.37,2013-11-19 10:34:00,
2013-11-19 05:39:00,39.1,27.2,30.04,WNW,295,5.0,13.0,62,0.00,OVC,,0.00,0.0,WeatherDisplay:10.37,2013-11-19 10:39:00,
2013-11-19 05:44:00,39.0,27.1,30.05,WNW,296,2.0,8.0,62,0.00,OVC,,0.00,0.0,WeatherDisplay:10.37,2013-11-19 10:44:00,
2013-11-19 05:49:00,38.9,26.6,30.05,WNW,285,2.0,12.0,61,0.00,OVC,,0.00,0.0,WeatherDisplay:10.37,2013-11-19 10:49:00,
2013-11-19 05:54:00,38.8,26.5,30.06,West,280,3.0,12.0,61,0.00,OVC,,0.00,0.0,WeatherDisplay:10.37,2013-11-19 10:54:00,
2013-11-19 05:59:00,38.8,26.1,30.07,WNW,286,5.0,12.0,60,0.00,OVC,,0.00,0.0,WeatherDisplay:10.37,2013-11-19 10:59:00,
2013-11-19 06:04:00,38.8,26.1,30.07,West,281,2.0,7.0,60,0.00,OVC,,0.00,0.0,WeatherDisplay:10.37,2013-11-19 11:04:00,
2013-11-19 06:09:00,38.7,26.4,30.08,West,274,5.0,13.0,61,0.00,OVC,,0.00,0.0,WeatherDisplay:10.37,2013-11-19 11:09:00,
2013-11-19 06:14:00,38.7,25.6,30.08,WNW,299,6.0,12.0,59,0.00,OVC,,0.00,0.0,WeatherDisplay:10.37,2013-11-19 11:14:00,
2013-11-19 06:19:00,38.7,26.0,30.08,WNW,302,3.0,7.0,60,0.00,OVC,,0.00,0.0,WeatherDisplay:10.37,2013-11-19 11:19:00,
2013-11-19 06:24:00,38.7,25.6,30.08,WNW,298,6.0,13.0,59,0.00,OVC,,0.00,0.0,WeatherDisplay:10.37,2013-11-19 11:24:00,
2013-11-19 06:29:00,38.6,25.5,30.08,WNW,296,7.0,13.0,59,0.00,OVC,,0.00,0.0,WeatherDisplay:10.37,2013-11-19 11:29:00,
2013-11-19 06:34:00,38.5,25.8,30.08,WNW,294,3.0,12.0,60,0.00,OVC,,0.00,0.0,WeatherDisplay:10.37,2013-11-19 11:34:00,
2013-11-19 06:39:00,38.4,25.7,30.08,WNW,293,5.0,14.0,60,0.00,OVC,,0.00,0.0,WeatherDisplay:10.37,2013-11-19 11:39:00,
2013-11-19 06:44:00,38.3,25.6,30.08,WNW,296,3.0,10.0,60,0.00,OVC,,0.00,0.0,WeatherDisplay:10.37,2013-11-19 11:44:00,
2013-11-19 06:49:00,38.2,25.5,30.09,WNW,298,3.0,9.0,60,0.00,OVC,,0.00,0.0,WeatherDisplay:10.37,2013-11-19 11:49:00,
2013-11-19 06:54:00,38.1,25.4,30.09,WNW,295,5.0,9.0,60,0.00,OVC,,0.00,0.0,WeatherDisplay:10.37,2013-11-19 11:54:00,
2013-11-19 06:59:00,38.0,25.7,30.09,WNW,287,6.0,9.0,61,0.00,OVC,,0.00,0.0,WeatherDisplay:10.37,2013-11-19 11:59:00,
2013-11-19 07:04:00,37.9,25.6,30.09,WNW,287,2.0,8.0,61,0.00,OVC,,0.00,5.0,WeatherDisplay:10.37,2013-11-19 12:04:00,
2013-11-19 07:09:00,37.8,25.5,30.10,West,279,5.0,9.0,61,0.00,OVC,,0.00,7.0,WeatherDisplay:10.37,2013-11-19 12:09:00,
2013-11-19 07:14:00,37.8,25.5,30.10,WNW,283,2.0,9.0,61,0.00,OVC,,0.00,9.0,WeatherDisplay:10.37,2013-11-19 12:14:00,
2013-11-19 07:19:00,37.7,25.8,30.10,WNW,294,2.0,8.0,62,0.00,OVC,,0.00,12.0,WeatherDisplay:10.37,2013-11-19 12:19:00,
2013-11-19 07:24:00,37.7,25.8,30.10,WNW,283,5.0,9.0,62,0.00,OVC,,0.00,14.0,WeatherDisplay:10.37,2013-11-19 12:24:00,
2013-11-19 07:29:00,37.7,25.8,30.10,West,270,2.0,8.0,62,0.00,OVC,,0.00,18.0,WeatherDisplay:10.37,2013-11-19 12:29:00,
2013-11-19 07:34:00,37.7,25.8,30.11,West,268,2.0,4.0,62,0.00,OVC,,0.00,21.0,WeatherDisplay:10.37,2013-11-19 12:34:00,
2013-11-19 07:39:00,37.7,25.8,30.11,West,262,3.0,9.0,62,0.00,OVC,,0.00,26.0,WeatherDisplay:10.37,2013-11-19 12:39:00,
2013-11-19 07:44:00,37.8,25.9,30.11,SW,230,2.0,5.0,62,0.00,OVC,,0.00,30.0,WeatherDisplay:10.37,2013-11-19 12:44:00,
2013-11-19 07:49:00,37.8,26.3,30.11,SSW,212,1.0,4.0,63,0.00,OVC,,0.00,37.0,WeatherDisplay:10.37,2013-11-19 12:49:00,
2013-11-19 07:54:00,37.8,26.0,30.12,SW,217,3.0,8.0,62,0.00,OVC,,0.00,39.0,WeatherDisplay:10.37,2013-11-19 12:54:00,
2013-11-19 07:59:00,37.9,26.4,30.12,SW,214,2.0,4.0,63,0.00,OVC,,0.00,54.0,WeatherDisplay:10.37,2013-11-19 12:59:00,
2013-11-19 08:04:00,38.0,26.1,30.12,SW,227,1.0,4.0,62,0.00,OVC,,0.00,60.0,WeatherDisplay:10.37,2013-11-19 13:04:00,
2013-11-19 08:09:00,38.2,26.7,30.13,West,265,2.0,9.0,63,0.00,OVC,,0.00,104.0,WeatherDisplay:10.37,2013-11-19 13:09:00,
2013-11-19 08:14:00,38.4,26.9,30.13,WNW,295,1.0,5.0,63,0.00,OVC,,0.00,72.0,WeatherDisplay:10.37,2013-11-19 13:14:00,
2013-11-19 08:19:00,38.8,26.8,30.13,WNW,286,6.0,8.0,62,0.00,OVC,,0.00,244.0,WeatherDisplay:10.37,2013-11-19 13:19:00,
2013-11-19 08:24:00,39.2,26.9,30.13,WNW,284,5.0,10.0,61,0.00,OVC,,0.00,176.0,WeatherDisplay:10.37,2013-11-19 13:24:00,
2013-11-19 08:29:00,39.6,27.3,30.14,WNW,296,6.0,9.0,61,0.00,OVC,,0.00,139.0,WeatherDisplay:10.37,2013-11-19 13:29:00,
2013-11-19 08:34:00,39.9,27.1,30.14,WNW,295,6.0,12.0,60,0.00,OVC,,0.00,153.0,WeatherDisplay:10.37,2013-11-19 13:34:00,
2013-11-19 08:39:00,40.1,27.4,30.14,WNW,287,3.0,9.0,60,0.00,OVC,,0.00,125.0,WeatherDisplay:10.37,2013-11-19 13:39:00,
2013-11-19 08:44:00,40.2,27.4,30.14,WNW,295,8.0,12.0,60,0.00,OVC,,0.00,199.0,WeatherDisplay:10.37,2013-11-19 13:44:00,
2013-11-19 08:49:00,40.3,27.1,30.14,WNW,297,2.0,9.0,59,0.00,OVC,,0.00,155.0,WeatherDisplay:10.37,2013-11-19 13:49:00,
2013-11-19 08:54:00,40.4,27.6,30.14,WNW,296,9.0,14.0,60,0.00,OVC,,0.00,294.0,WeatherDisplay:10.37,2013-11-19 13:54:00,
2013-11-19 08:59:00,40.7,27.9,30.14,WNW,294,6.0,17.0,60,0.00,OVC,,0.00,436.0,WeatherDisplay:10.37,2013-11-19 13:59:00,
2013-11-19 09:04:00,41.0,27.3,30.15,WNW,301,6.0,17.0,58,0.00,OVC,,0.00,181.0,WeatherDisplay:10.37,2013-11-19 14:04:00,
2013-11-19 09:09:00,41.0,27.8,30.15,WNW,301,8.0,16.0,59,0.00,OVC,,0.00,462.0,WeatherDisplay:10.37,2013-11-19 14:09:00,
2013-11-19 09:14:00,41.1,27.9,30.15,WNW,283,7.0,15.0,59,0.00,OVC,,0.00,223.0,WeatherDisplay:10.37,2013-11-19 14:14:00,
2013-11-19 09:19:00,41.4,27.7,30.15,WNW,288,9.0,15.0,58,0.00,FEW,,0.00,473.0,WeatherDisplay:10.37,2013-11-19 14:19:00,
2013-11-19 09:24:00,41.6,27.5,30.15,WNW,296,10.0,16.0,57,0.00,FEW,,0.00,499.0,WeatherDisplay:10.37,2013-11-19 14:24:00,
2013-11-19 09:29:00,42.0,28.3,30.15,WNW,301,5.0,10.0,58,0.00,FEW,,0.00,512.0,WeatherDisplay:10.37,2013-11-19 14:29:00,
2013-11-19 09:34:00,42.2,28.5,30.16,WNW,295,7.0,12.0,58,0.00,FEW,,0.00,232.0,WeatherDisplay:10.37,2013-11-19 14:34:00,
2013-11-19 09:39:00,42.1,28.0,30.16,WNW,298,6.0,16.0,57,0.00,FEW,,0.00,220.0,WeatherDisplay:10.37,2013-11-19 14:39:00,
2013-11-19 09:44:00,42.0,28.3,30.17,NW,306,9.0,14.0,58,0.00,FEW,,0.00,357.0,WeatherDisplay:10.37,2013-11-19 14:44:00,
2013-11-19 09:49:00,42.0,27.9,30.17,NW,304,6.0,12.0,57,0.00,FEW,,0.00,225.0,WeatherDisplay:10.37,2013-11-19 14:49:00,
2013-11-19 09:54:00,42.0,27.9,30.17,WNW,300,7.0,15.0,57,0.00,FEW,,0.00,218.0,WeatherDisplay:10.37,2013-11-19 14:54:00,
2013-11-19 09:59:00,42.0,28.3,30.17,WNW,294,7.0,12.0,58,0.00,FEW,,0.00,213.0,WeatherDisplay:10.37,2013-11-19 14:59:00,
2013-11-19 10:04:00,41.9,27.8,30.17,WNW,292,7.0,14.0,57,0.00,OVC,,0.00,262.0,WeatherDisplay:10.37,2013-11-19 15:04:00,
2013-11-19 10:09:00,41.9,27.8,30.18,WNW,294,7.0,15.0,57,0.00,OVC,,0.00,250.0,WeatherDisplay:10.37,2013-11-19 15:09:00,
2013-11-19 10:14:00,41.8,27.7,30.18,NW,306,12.0,16.0,57,0.00,OVC,,0.00,250.0,WeatherDisplay:10.37,2013-11-19 15:14:00,
2013-11-19 10:19:00,41.7,27.6,30.18,NW,310,5.0,12.0,57,0.00,OVC,,0.00,220.0,WeatherDisplay:10.37,2013-11-19 15:19:00,
2013-11-19 10:24:00,41.9,28.1,30.18,NW,308,6.0,12.0,58,0.00,OVC,,0.00,229.0,WeatherDisplay:10.37,2013-11-19 15:24:00,
2013-11-19 10:29:00,41.9,28.2,30.19,WNW,303,10.0,16.0,58,0.00,OVC,,0.00,221.0,WeatherDisplay:10.37,2013-11-19 15:29:00,
2013-11-19 10:34:00,42.2,28.5,30.19,WNW,299,7.0,14.0,58,0.00,OVC,,0.00,691.0,WeatherDisplay:10.37,2013-11-19 15:34:00,
2013-11-19 10:39:00,42.5,28.3,30.19,NW,308,10.0,16.0,57,0.00,OVC,,0.00,325.0,WeatherDisplay:10.37,2013-11-19 15:39:00,
2013-11-19 10:44:00,42.7,28.5,30.19,NW,313,5.0,14.0,57,0.00,OVC,,0.00,659.0,WeatherDisplay:10.37,2013-11-19 15:44:00,
2013-11-19 10:49:00,43.1,29.4,30.19,WNW,302,9.0,15.0,58,0.00,OVC,,0.00,617.0,WeatherDisplay:10.37,2013-11-19 15:49:00,
2013-11-19 10:54:00,43.4,28.7,30.19,WNW,291,7.0,12.0,56,0.00,OVC,,0.00,301.0,WeatherDisplay:10.37,2013-11-19 15:54:00,
2013-11-19 10:59:00,43.3,28.7,30.19,WNW,292,10.0,16.0,56,0.00,OVC,,0.00,127.0,WeatherDisplay:10.37,2013-11-19 15:59:00,
2013-11-19 11:04:00,42.9,27.8,30.19,WNW,296,9.0,15.0,55,0.00,OVC,,0.00,190.0,WeatherDisplay:10.37,2013-11-19 16:04:00,
2013-11-19 11:09:00,42.6,27.9,30.19,WNW,301,9.0,15.0,56,0.00,OVC,,0.00,141.0,WeatherDisplay:10.37,2013-11-19 16:09:00,
2013-11-19 11:14:00,42.3,28.1,30.19,WNW,300,12.0,18.0,57,0.00,OVC,,0.00,130.0,WeatherDisplay:10.37,2013-11-19 16:14:00,
2013-11-19 11:19:00,42.0,27.4,30.18,WNW,303,10.0,17.0,56,0.00,OVC,,0.00,162.0,WeatherDisplay:10.37,2013-11-19 16:19:00,
2013-11-19 11:24:00,42.0,27.9,30.18,NW,310,6.0,14.0,57,0.00,OVC,,0.00,257.0,WeatherDisplay:10.37,2013-11-19 16:24:00,
2013-11-19 11:29:00,42.1,27.9,30.18,WNW,298,6.0,14.0,57,0.00,OVC,,0.00,214.0,WeatherDisplay:10.37,2013-11-19 16:29:00,
2013-11-19 11:34:00,42.4,28.2,30.18,WNW,286,5.0,13.0,57,0.00,OVC,,0.00,257.0,WeatherDisplay:10.37,2013-11-19 16:34:00,
2013-11-19 11:39:00,42.8,29.5,30.18,WNW,285,6.0,12.0,59,0.00,OVC,,0.00,223.0,WeatherDisplay:10.37,2013-11-19 16:39:00,
2013-11-19 11:44:00,43.2,29.0,30.18,WNW,297,9.0,18.0,57,0.00,OVC,,0.00,633.0,WeatherDisplay:10.37,2013-11-19 16:44:00,
2013-11-19 11:49:00,43.6,28.5,30.18,WNW,296,8.0,15.0,55,0.00,OVC,,0.00,631.0,WeatherDisplay:10.37,2013-11-19 16:49:00,
2013-11-19 11:54:00,43.6,28.9,30.18,WNW,299,8.0,18.0,56,0.00,OVC,,0.00,584.0,WeatherDisplay:10.37,2013-11-19 16:54:00,
2013-11-19 11:59:00,43.4,28.3,30.18,WNW,300,7.0,13.0,55,0.00,OVC,,0.00,90.0,WeatherDisplay:10.37,2013-11-19 16:59:00,
2013-11-19 12:04:00,43.2,28.1,30.18,WNW,299,5.0,13.0,55,0.00,OVC,,0.00,84.0,WeatherDisplay:10.37,2013-11-19 17:04:00,
2013-11-19 12:09:00,43.0,27.9,30.18,WNW,298,6.0,13.0,55,0.00,OVC,,0.00,77.0,WeatherDisplay:10.37,2013-11-19 17:09:00,
2013-11-19 12:14:00,42.8,28.1,30.18,WNW,293,6.0,10.0,56,0.00,OVC,,0.00,113.0,WeatherDisplay:10.37,2013-11-19 17:14:00,
2013-11-19 12:19:00,42.7,28.1,30.18,WNW,296,8.0,14.0,56,0.00,OVC,,0.00,113.0,WeatherDisplay:10.37,2013-11-19 17:19:00,
2013-11-19 12:24:00,42.8,28.2,30.18,WNW,301,7.0,12.0,56,0.00,OVC,,0.00,90.0,WeatherDisplay:10.37,2013-11-19 17:24:00,
2013-11-19 12:29:00,42.7,28.0,30.18,WNW,302,6.0,12.0,56,0.00,OVC,,0.00,76.0,WeatherDisplay:10.37,2013-11-19 17:29:00,
2013-11-19 12:34:00,42.5,28.3,30.18,NW,309,6.0,12.0,57,0.00,OVC,,0.00,67.0,WeatherDisplay:10.37,2013-11-19 17:34:00,
2013-11-19 12:39:00,42.4,28.2,30.18,NW,304,8.0,15.0,57,0.00,OVC,,0.00,81.0,WeatherDisplay:10.37,2013-11-19 17:39:00,
2013-11-19 12:44:00,42.4,27.8,30.19,WNW,291,5.0,12.0,56,0.00,OVC,,0.00,109.0,WeatherDisplay:10.37,2013-11-19 17:44:00,
2013-11-19 12:49:00,42.3,27.7,30.19,WNW,292,6.0,16.0,56,0.00,OVC,,0.00,149.0,WeatherDisplay:10.37,2013-11-19 17:49:00,
2013-11-19 12:54:00,42.5,27.9,30.19,WNW,284,5.0,12.0,56,0.00,OVC,,0.00,165.0,WeatherDisplay:10.37,2013-11-19 17:54:00,
2013-11-19 12:59:00,42.7,28.9,30.19,West,277,5.0,12.0,58,0.00,OVC,,0.00,207.0,WeatherDisplay:10.37,2013-11-19 17:59:00,
2013-11-19 13:04:00,43.1,29.3,30.19,WNW,287,3.0,12.0,58,0.00,OVC,,0.00,204.0,WeatherDisplay:10.37,2013-11-19 18:04:00,
2013-11-19 13:09:00,43.4,28.7,30.19,WNW,285,6.0,12.0,56,0.00,OVC,,0.00,172.0,WeatherDisplay:10.37,2013-11-19 18:09:00,
2013-11-19 13:14:00,43.5,28.8,30.19,WNW,294,7.0,13.0,56,0.00,OVC,,0.00,128.0,WeatherDisplay:10.37,2013-11-19 18:14:00,
2013-11-19 13:19:00,43.5,28.4,30.19,WNW,299,7.0,12.0,55,0.00,BKN,,0.00,345.0,WeatherDisplay:10.37,2013-11-19 18:19:00,
2013-11-19 13:24:00,43.5,28.8,30.19,WNW,294,6.0,12.0,56,0.00,BKN,,0.00,220.0,WeatherDisplay:10.37,2013-11-19 18:24:00,
2013-11-19 13:29:00,43.7,28.6,30.19,WNW,298,9.0,16.0,55,0.00,BKN,,0.00,199.0,WeatherDisplay:10.37,2013-11-19 18:29:00,
2013-11-19 13:34:00,43.8,28.7,30.19,WNW,294,7.0,13.0,55,0.00,BKN,,0.00,156.0,WeatherDisplay:10.37,2013-11-19 18:34:00,
2013-11-19 13:39:00,43.7,29.0,30.19,WNW,282,8.0,14.0,56,0.00,BKN,,0.00,169.0,WeatherDisplay:10.37,2013-11-19 18:39:00,
2013-11-19 13:44:00,44.1,29.3,30.19,WNW,285,7.0,16.0,56,0.00,BKN,,0.00,547.0,WeatherDisplay:10.37,2013-11-19 18:44:00,
2013-11-19 13:49:00,44.2,29.5,30.19,WNW,289,6.0,16.0,56,0.00,BKN,,0.00,139.0,WeatherDisplay:10.37,2013-11-19 18:49:00,
2013-11-19 13:54:00,44.1,28.5,30.19,WNW,291,7.0,15.0,54,0.00,BKN,,0.00,185.0,WeatherDisplay:10.37,2013-11-19 18:54:00,
2013-11-19 13:59:00,44.0,28.4,30.19,WNW,291,6.0,13.0,54,0.00,BKN,,0.00,214.0,WeatherDisplay:10.37,2013-11-19 18:59:00,
2013-11-19 14:04:00,44.0,29.7,30.19,WNW,303,7.0,12.0,57,0.00,BKN,,0.00,171.0,WeatherDisplay:10.37,2013-11-19 19:04:00,
2013-11-19 14:09:00,44.0,28.4,30.19,WNW,301,8.0,12.0,54,0.00,BKN,,0.00,181.0,WeatherDisplay:10.37,2013-11-19 19:09:00,
2013-11-19 14:14:00,43.9,28.7,30.20,WNW,297,5.0,12.0,55,0.00,BKN,,0.00,174.0,WeatherDisplay:10.37,2013-11-19 19:14:00,
2013-11-19 14:19:00,43.8,28.7,30.19,WNW,296,6.0,9.0,55,0.00,BKN,,0.00,142.0,WeatherDisplay:10.37,2013-11-19 19:19:00,
2013-11-19 14:24:00,43.7,29.0,30.19,WNW,295,5.0,13.0,56,0.00,BKN,,0.00,294.0,WeatherDisplay:10.37,2013-11-19 19:24:00,
2013-11-19 14:29:00,43.8,28.2,30.19,WNW,292,8.0,14.0,54,0.00,BKN,,0.00,127.0,WeatherDisplay:10.37,2013-11-19 19:29:00,
2013-11-19 14:34:00,43.9,28.8,30.19,WNW,285,7.0,14.0,55,0.00,BKN,,0.00,385.0,WeatherDisplay:10.37,2013-11-19 19:34:00,
2013-11-19 14:39:00,44.2,29.0,30.20,WNW,288,9.0,15.0,55,0.00,BKN,,0.00,341.0,WeatherDisplay:10.37,2013-11-19 19:39:00,
2013-11-19 14:44:00,44.3,28.2,30.20,WNW,293,10.0,17.0,53,0.00,BKN,,0.00,308.0,WeatherDisplay:10.37,2013-11-19 19:44:00,
2013-11-19 14:49:00,44.2,28.1,30.20,WNW,297,10.0,14.0,53,0.00,BKN,,0.00,39.0,WeatherDisplay:10.37,2013-11-19 19:49:00,
2013-11-19 14:54:00,43.9,27.9,30.20,WNW,299,7.0,13.0,53,0.00,BKN,,0.00,213.0,WeatherDisplay:10.37,2013-11-19 19:54:00,
2013-11-19 14:59:00,43.9,28.3,30.20,NW,306,8.0,12.0,54,0.00,BKN,,0.00,211.0,WeatherDisplay:10.37,2013-11-19 19:59:00,
2013-11-19 15:04:00,43.9,28.8,30.20,NW,309,6.0,12.0,55,0.00,BKN,,0.00,243.0,WeatherDisplay:10.37,2013-11-19 20:04:00,
2013-11-19 15:09:00,44.0,28.4,30.20,NW,306,6.0,12.0,54,0.00,BKN,,0.00,221.0,WeatherDisplay:10.37,2013-11-19 20:09:00,
2013-11-19 15:14:00,44.0,28.0,30.20,NW,307,7.0,13.0,53,0.00,BKN,,0.00,204.0,WeatherDisplay:10.37,2013-11-19 20:14:00,
2013-11-19 15:19:00,44.1,28.0,30.20,NW,315,2.0,12.0,53,0.00,OVC,,0.00,186.0,WeatherDisplay:10.37,2013-11-19 20:19:00,
2013-11-19 15:24:00,44.1,27.6,30.20,NW,314,6.0,15.0,52,0.00,OVC,,0.00,174.0,WeatherDisplay:10.37,2013-11-19 20:24:00,
2013-11-19 15:29:00,44.0,27.5,30.20,NW,309,12.0,17.0,52,0.00,OVC,,0.00,162.0,WeatherDisplay:10.37,2013-11-19 20:29:00,
2013-11-19 15:34:00,43.9,27.8,30.20,WNW,298,7.0,14.0,53,0.00,OVC,,0.00,144.0,WeatherDisplay:10.37,2013-11-19 20:34:00,
2013-11-19 15:39:00,43.9,27.8,30.20,WNW,295,6.0,12.0,53,0.00,OVC,,0.00,132.0,WeatherDisplay:10.37,2013-11-19 20:39:00,
2013-11-19 15:44:00,43.8,27.3,30.21,NW,314,7.0,10.0,52,0.00,OVC,,0.00,104.0,WeatherDisplay:10.37,2013-11-19 20:44:00,
2013-11-19 15:49:00,43.7,28.1,30.21,NW,309,2.0,9.0,54,0.00,OVC,,0.00,58.0,WeatherDisplay:10.37,2013-11-19 20:49:00,
2013-11-19 15:54:00,43.7,28.1,30.21,WNW,297,3.0,9.0,54,0.00,OVC,,0.00,47.0,WeatherDisplay:10.37,2013-11-19 20:54:00,
2013-11-19 15:59:00,43.6,27.1,30.22,WNW,290,2.0,12.0,52,0.00,OVC,,0.00,39.0,WeatherDisplay:10.37,2013-11-19 20:59:00,
2013-11-19 16:04:00,43.4,27.4,30.22,WNW,286,3.0,10.0,53,0.00,OVC,,0.00,33.0,WeatherDisplay:10.37,2013-11-19 21:04:00,
2013-11-19 16:09:00,43.2,27.2,30.22,WNW,293,2.0,9.0,53,0.00,OVC,,0.00,30.0,WeatherDisplay:10.37,2013-11-19 21:09:00,
2013-11-19 16:14:00,43.0,27.5,30.22,WNW,285,1.0,6.0,54,0.00,OVC,,0.00,18.0,WeatherDisplay:10.37,2013-11-19 21:14:00,
2013-11-19 16:19:00,42.7,27.2,30.22,West,275,3.0,9.0,54,0.00,FEW,,0.00,16.0,WeatherDisplay:10.37,2013-11-19 21:19:00,
2013-11-19 16:24:00,42.4,27.4,30.22,West,273,3.0,12.0,55,0.00,FEW,,0.00,16.0,WeatherDisplay:10.37,2013-11-19 21:24:00,
2013-11-19 16:29:00,42.1,27.0,30.23,West,267,3.0,8.0,55,0.00,FEW,,0.00,11.0,WeatherDisplay:10.37,2013-11-19 21:29:00,
2013-11-19 16:34:00,41.8,27.2,30.23,West,268,5.0,9.0,56,0.00,FEW,,0.00,9.0,WeatherDisplay:10.37,2013-11-19 21:34:00,
2013-11-19 16:39:00,41.5,27.0,30.23,West,271,2.0,6.0,56,0.00,FEW,,0.00,7.0,WeatherDisplay:10.37,2013-11-19 21:39:00,
2013-11-19 16:44:00,41.3,27.2,30.23,West,273,1.0,9.0,57,0.00,FEW,,0.00,5.0,WeatherDisplay:10.37,2013-11-19 21:44:00,
2013-11-19 16:49:00,41.1,27.0,30.23,WNW,282,2.0,4.0,57,0.00,FEW,,0.00,0.0,WeatherDisplay:10.37,2013-11-19 21:49:00,
2013-11-19 16:54:00,40.8,27.2,30.23,WNW,284,3.0,6.0,58,0.00,FEW,,0.00,0.0,WeatherDisplay:10.37,2013-11-19 21:54:00,
2013-11-19 16:59:00,40.6,27.0,30.24,WNW,282,2.0,5.0,58,0.00,FEW,,0.00,0.0,WeatherDisplay:10.37,2013-11-19 21:59:00,
2013-11-19 17:04:00,40.4,27.2,30.24,WNW,290,2.0,5.0,59,0.00,CLR,,0.00,0.0,WeatherDisplay:10.37,2013-11-19 22:04:00,
2013-11-19 17:09:00,40.2,27.0,30.24,WNW,300,2.0,5.0,59,0.00,CLR,,0.00,0.0,WeatherDisplay:10.37,2013-11-19 22:09:00,
2013-11-19 17:19:00,39.7,27.0,30.24,NW,305,0.0,2.0,60,0.00,CLR,,0.00,0.0,WeatherDisplay:10.37,2013-11-19 22:19:00,
2013-11-19 17:24:00,39.5,27.2,30.24,NW,306,1.0,3.0,61,0.00,CLR,,0.00,0.0,WeatherDisplay:10.37,2013-11-19 22:24:00,
2013-11-19 17:29:00,39.2,26.9,30.24,NW,306,0.0,2.0,61,0.00,CLR,,0.00,0.0,WeatherDisplay:10.37,2013-11-19 22:29:00,
2013-11-19 17:34:00,39.0,26.7,30.25,NW,305,1.0,2.0,61,0.00,CLR,,0.00,0.0,WeatherDisplay:10.37,2013-11-19 22:34:00,
2013-11-19 17:39:00,38.8,26.5,30.25,NW,317,1.0,3.0,61,0.00,CLR,,0.00,0.0,WeatherDisplay:10.37,2013-11-19 22:39:00,
2013-11-19 17:44:00,38.7,26.4,30.25,North,353,1.0,3.0,61,0.00,CLR,,0.00,0.0,WeatherDisplay:10.37,2013-11-19 22:44:00,
2013-11-19 17:49:00,38.5,26.6,30.25,ENE,74,1.0,3.0,62,0.00,CLR,,0.00,0.0,WeatherDisplay:10.37,2013-11-19 22:49:00,
2013-11-19 17:54:00,38.3,26.8,30.26,SSE,155,2.0,3.0,63,0.00,CLR,,0.00,0.0,WeatherDisplay:10.37,2013-11-19 22:54:00,
2013-11-19 17:59:00,38.0,26.5,30.26,South,174,2.0,4.0,63,0.00,CLR,,0.00,0.0,WeatherDisplay:10.37,2013-11-19 22:59:00,
2013-11-19 18:04:00,37.4,26.7,30.26,South,171,1.0,3.0,65,0.00,CLR,,0.00,0.0,WeatherDisplay:10.37,2013-11-19 23:04:00,
2013-11-19 18:09:00,37.0,26.7,30.27,SSE,167,2.0,3.0,66,0.00,CLR,,0.00,0.0,WeatherDisplay:10.37,2013-11-19 23:09:00,
2013-11-19 18:14:00,36.5,26.6,30.27,SSE,167,0.0,3.0,67,0.00,CLR,,0.00,0.0,WeatherDisplay:10.37,2013-11-19 23:14:00,
2013-11-19 18:19:00,36.2,26.3,30.27,SSW,194,1.0,4.0,67,0.00,CLR,,0.00,0.0,WeatherDisplay:10.37,2013-11-19 23:19:00,
2013-11-19 18:24:00,36.1,26.2,30.27,WSW,245,1.0,3.0,67,0.00,CLR,,0.00,0.0,WeatherDisplay:10.37,2013-11-19 23:24:00,
2013-11-19 18:29:00,36.0,26.5,30.27,WNW,283,1.0,3.0,68,0.00,CLR,,0.00,0.0,WeatherDisplay:10.37,2013-11-19 23:29:00,
2013-11-19 18:34:00,35.9,26.4,30.27,WNW,301,0.0,1.0,68,0.00,CLR,,0.00,0.0,WeatherDisplay:10.37,2013-11-19 23:34:00,
2013-11-19 18:44:00,35.3,26.5,30.27,NW,304,1.0,3.0,70,0.00,CLR,,0.00,0.0,WeatherDisplay:10.37,2013-11-19 23:44:00,
2013-11-19 18:49:00,34.9,26.1,30.28,SSE,168,1.0,4.0,70,0.00,CLR,,0.00,0.0,WeatherDisplay:10.37,2013-11-19 23:49:00,
2013-11-19 18:54:00,34.2,25.8,30.28,SSE,159,2.0,4.0,71,0.00,CLR,,0.00,0.0,WeatherDisplay:10.37,2013-11-19 23:54:00,
2013-11-19 18:59:00,33.7,25.6,30.28,SSE,164,2.0,5.0,72,0.00,CLR,,0.00,0.0,WeatherDisplay:10.37,2013-11-19 23:59:00,
2013-11-19 19:04:00,33.5,25.8,30.29,SSE,166,0.0,3.0,73,0.00,CLR,,0.00,0.0,WeatherDisplay:10.37,2013-11-20 00:04:00,
2013-11-19 19:09:00,33.3,25.6,30.29,South,171,1.0,3.0,73,0.00,CLR,,0.00,0.0,WeatherDisplay:10.37,2013-11-20 00:09:00,
2013-11-19 19:14:00,33.2,25.8,30.29,South,171,0.0,2.0,74,0.00,CLR,,0.00,0.0,WeatherDisplay:10.37,2013-11-20 00:14:00,
2013-11-19 19:19:00,33.0,25.6,30.29,South,171,0.0,1.0,74,0.00,CLR,,0.00,0.0,WeatherDisplay:10.37,2013-11-20 00:19:00,
2013-11-19 19:24:00,32.9,25.5,30.29,SSE,164,2.0,4.0,74,0.00,CLR,,0.00,0.0,WeatherDisplay:10.37,2013-11-20 00:24:00,
2013-11-19 19:29:00,32.5,25.5,30.30,SSE,158,1.0,3.0,75,0.00,CLR,,0.00,0.0,WeatherDisplay:10.37,2013-11-20 00:29:00,
2013-11-19 19:34:00,32.3,25.6,30.30,ENE,67,0.0,4.0,76,0.00,CLR,,0.00,0.0,WeatherDisplay:10.37,2013-11-20 00:34:00,
2013-11-19 19:39:00,32.2,25.5,30.30,NE,39,1.0,2.0,76,0.00,CLR,,0.00,0.0,WeatherDisplay:10.37,2013-11-20 00:39:00,
2013-11-19 19:44:00,32.1,25.4,30.30,NE,39,0.0,2.0,76,0.00,CLR,,0.00,0.0,WeatherDisplay:10.37,2013-11-20 00:44:00,
2013-11-19 19:49:00,32.1,25.7,30.31,NE,39,0.0,0.0,77,0.00,CLR,,0.00,0.0,WeatherDisplay:10.37,2013-11-20 00:49:00,
2013-11-19 19:54:00,32.0,25.6,30.31,NE,39,0.0,1.0,77,0.00,CLR,,0.00,0.0,WeatherDisplay:10.37,2013-11-20 00:54:00,
2013-11-19 19:59:00,31.8,25.4,30.31,NE,39,0.0,0.0,77,0.00,CLR,,0.00,0.0,WeatherDisplay:10.37,2013-11-20 00:59:00,
2013-11-19 20:04:00,31.6,25.5,30.31,NE,39,0.0,0.0,78,0.00,CLR,,0.00,0.0,WeatherDisplay:10.37,2013-11-20 01:04:00,
2013-11-19 20:09:00,31.4,25.3,30.32,NE,39,2.0,4.0,78,0.00,CLR,,0.00,0.0,WeatherDisplay:10.37,2013-11-20 01:09:00,
2013-11-19 20:14:00,31.0,25.2,30.32,NE,39,0.0,4.0,79,0.00,CLR,,0.00,0.0,WeatherDisplay:10.37,2013-11-20 01:14:00,
2013-11-19 20:19:00,30.8,25.1,30.32,NE,40,1.0,3.0,79,0.00,CLR,,0.00,0.0,WeatherDisplay:10.37,2013-11-20 01:19:00,
2013-11-19 20:24:00,30.6,25.2,30.32,NE,40,1.0,3.0,80,0.00,CLR,,0.00,0.0,WeatherDisplay:10.37,2013-11-20 01:24:00,
2013-11-19 20:29:00,30.4,25.0,30.32,NE,40,1.0,3.0,80,0.00,CLR,,0.00,0.0,WeatherDisplay:10.37,2013-11-20 01:29:00,
2013-11-19 20:34:00,30.2,24.8,30.32,NE,40,0.0,1.0,80,0.00,CLR,,0.00,0.0,WeatherDisplay:10.37,2013-11-20 01:34:00,
2013-11-19 20:39:00,30.2,25.1,30.33,NE,40,1.0,2.0,81,0.00,CLR,,0.00,0.0,WeatherDisplay:10.37,2013-11-20 01:39:00,
2013-11-19 20:44:00,30.0,24.9,30.33,NE,40,2.0,3.0,81,0.00,CLR,,0.00,0.0,WeatherDisplay:10.37,2013-11-20 01:44:00,
2013-11-19 20:49:00,29.9,24.8,30.34,NE,40,2.0,4.0,81,0.00,CLR,,0.00,0.0,WeatherDisplay:10.37,2013-11-20 01:49:00,
2013-11-19 20:54:00,29.8,24.7,30.34,NE,40,2.0,2.0,81,0.00,CLR,,0.00,0.0,WeatherDisplay:10.37,2013-11-20 01:54:00,
2013-11-19 20:59:00,29.8,24.7,30.34,NE,40,1.0,3.0,81,0.00,CLR,,0.00,0.0,WeatherDisplay:10.37,2013-11-20 01:59:00,
2013-11-19 21:04:00,29.7,24.6,30.34,NE,40,1.0,3.0,81,0.00,CLR,,0.00,0.0,WeatherDisplay:10.37,2013-11-20 02:04:00,
2013-11-19 21:09:00,29.6,24.5,30.34,NE,40,1.0,2.0,81,0.00,CLR,,0.00,0.0,WeatherDisplay:10.37,2013-11-20 02:09:00,
2013-11-19 21:14:00,29.4,24.6,30.35,NE,40,2.0,4.0,82,0.00,CLR,,0.00,0.0,WeatherDisplay:10.37,2013-11-20 02:14:00,
2013-11-19 21:19:00,29.2,24.4,30.35,ESE,121,1.0,6.0,82,0.00,CLR,,0.00,0.0,WeatherDisplay:10.37,2013-11-20 02:19:00,
2013-11-19 21:24:00,29.1,24.3,30.35,ESE,106,0.0,3.0,82,0.00,CLR,,0.00,0.0,WeatherDisplay:10.37,2013-11-20 02:24:00,
2013-11-19 21:29:00,29.0,24.2,30.35,NE,48,0.0,2.0,82,0.00,CLR,,0.00,0.0,WeatherDisplay:10.37,2013-11-20 02:29:00,
2013-11-19 21:34:00,29.0,24.4,30.35,NNE,27,1.0,4.0,83,0.00,CLR,,0.00,0.0,WeatherDisplay:10.37,2013-11-20 02:34:00,
2013-11-19 21:44:00,28.6,24.1,30.36,ESE,102,1.0,4.0,83,0.00,CLR,,0.00,0.0,WeatherDisplay:10.37,2013-11-20 02:44:00,
2013-11-19 21:49:00,28.6,24.1,30.36,SE,129,0.0,1.0,83,0.00,CLR,,0.00,0.0,WeatherDisplay:10.37,2013-11-20 02:49:00,
2013-11-19 21:54:00,28.6,24.1,30.36,SE,128,0.0,3.0,83,0.00,CLR,,0.00,0.0,WeatherDisplay:10.37,2013-11-20 02:54:00,
2013-11-19 21:59:00,28.6,24.1,30.36,SE,128,1.0,2.0,83,0.00,CLR,,0.00,0.0,WeatherDisplay:10.37,2013-11-20 02:59:00,
2013-11-19 22:04:00,28.5,24.0,30.36,SE,128,1.0,3.0,83,0.00,CLR,,0.00,0.0,WeatherDisplay:10.37,2013-11-20 03:04:00,
2013-11-19 22:09:00,28.5,24.0,30.36,SE,129,1.0,2.0,83,0.00,CLR,,0.00,0.0,WeatherDisplay:10.37,2013-11-20 03:09:00,
2013-11-19 22:14:00,28.5,24.3,30.37,SE,129,0.0,3.0,84,0.00,CLR,,0.00,0.0,WeatherDisplay:10.37,2013-11-20 03:14:00,
2013-11-19 22:19:00,28.4,24.2,30.37,SE,138,2.0,4.0,84,0.00,CLR,,0.00,0.0,WeatherDisplay:10.37,2013-11-20 03:19:00,
2013-11-19 22:24:00,28.3,24.1,30.37,SE,144,1.0,2.0,84,0.00,CLR,,0.00,0.0,WeatherDisplay:10.37,2013-11-20 03:24:00,
2013-11-19 22:29:00,28.3,24.1,30.37,North,5,2.0,5.0,84,0.00,CLR,,0.00,0.0,WeatherDisplay:10.37,2013-11-20 03:29:00,
2013-11-19 22:34:00,28.2,24.0,30.38,NNE,22,3.0,4.0,84,0.00,CLR,,0.00,0.0,WeatherDisplay:10.37,2013-11-20 03:34:00,
2013-11-19 22:44:00,28.2,24.0,30.38,SE,134,0.0,2.0,84,0.00,CLR,,0.00,0.0,WeatherDisplay:10.37,2013-11-20 03:44:00,
2013-11-19 22:49:00,28.1,23.9,30.37,SE,128,0.0,2.0,84,0.00,CLR,,0.00,0.0,WeatherDisplay:10.37,2013-11-20 03:49:00,
2013-11-19 22:54:00,28.1,23.9,30.38,SE,127,1.0,3.0,84,0.00,CLR,,0.00,0.0,WeatherDisplay:10.37,2013-11-20 03:54:00,
2013-11-19 22:59:00,28.1,23.9,30.38,SE,127,0.0,2.0,84,0.00,CLR,,0.00,0.0,WeatherDisplay:10.37,2013-11-20 03:59:00,
2013-11-19 23:04:00,28.0,23.8,30.38,SE,127,0.0,0.0,84,0.00,CLR,,0.00,0.0,WeatherDisplay:10.37,2013-11-20 04:04:00,
2013-11-19 23:09:00,28.0,23.8,30.38,ESE,121,1.0,3.0,84,0.00,CLR,,0.00,0.0,WeatherDisplay:10.37,2013-11-20 04:09:00,
2013-11-19 23:14:00,27.9,23.7,30.38,East,92,1.0,3.0,84,0.00,CLR,,0.00,0.0,WeatherDisplay:10.37,2013-11-20 04:14:00,
2013-11-19 23:19:00,27.8,23.6,30.37,ENE,76,1.0,2.0,84,0.00,CLR,,0.00,0.0,WeatherDisplay:10.37,2013-11-20 04:19:00,
2013-11-19 23:24:00,27.8,23.6,30.38,ENE,78,2.0,3.0,84,0.00,CLR,,0.00,0.0,WeatherDisplay:10.37,2013-11-20 04:24:00,
2013-11-19 23:29:00,27.9,23.7,30.38,East,87,3.0,4.0,84,0.00,CLR,,0.00,0.0,WeatherDisplay:10.37,2013-11-20 04:29:00,
2013-11-19 23:34:00,28.0,23.8,30.37,East,98,0.0,3.0,84,0.00,CLR,,0.00,0.0,WeatherDisplay:10.37,2013-11-20 04:34:00,
2013-11-19 23:39:00,28.0,23.8,30.37,ESE,104,0.0,2.0,84,0.00,CLR,,0.00,0.0,WeatherDisplay:10.37,2013-11-20 04:39:00,
2013-11-19 23:44:00,27.9,23.4,30.37,ESE,122,2.0,4.0,83,0.00,CLR,,0.00,0.0,WeatherDisplay:10.37,2013-11-20 04:44:00,
2013-11-19 23:49:00,27.8,23.6,30.37,SE,139,2.0,4.0,84,0.00,CLR,,0.00,0.0,WeatherDisplay:10.37,2013-11-20 04:49:00,
2013-11-19 23:54:00,27.9,23.7,30.37,SE,143,2.0,4.0,84,0.00,CLR,,0.00,0.0,WeatherDisplay:10.37,2013-11-20 04:54:00,
2013-11-19 23:59:00,28.0,23.5,30.37,SE,143,0.0,3.0,83,0.00,CLR,,0.00,0.0,WeatherDisplay:10.37,2013-11-20 04:59:00,